Муминабад

Таджикистан     38°06′32″N   70°01′38″E
В апреле 2022 года жителям России запретили посещать сайт meteo.paraplan.net по решению Генеральной прокуратуры. Аудитория сайта уменьшилась в 10 раз. Владельцы сайта не видят смысла в поддержке погодного сервера в таких условиях. Сайт будет закрыт в октябре.
темп.,
°C
ветер,
м/с
пор.,
м/с
влажн.,
%
обл.,
%
осадки,
мм/ч
давл.,
гПа
погр.,
м
30 сентября, пт
пт3023:00+17в22230 0.0 101313
02:00+16вюв32250 0.0 101314
05:00+15вюв32270 0.0 101313
08:00+19вюв112095 0.0 1014125
11:00+23зюз331659 0.0 10141582
14:00+25зюз5413100 0.0 10121910
17:00+23зюз2316100 0.0 10121267
20:00+20ююв2220100 0.0 101420
1 октября, сб
сб123:00+18ююв2228100 0.0 101521
02:00+17юв2229100 0.0 101521
05:00+17вюв3329100 0.0 101535
08:00+19юв1227100 0.0 1016396
11:00+21ю362298 0.0 10162787
14:00+22юз451988 0.1 10142751
17:00+21зюз331916 0.1 10142174
20:00+16ююв22274 0.0 101715
2 октября, вс
вс223:00+14вюв22294 0.0 101711
02:00+13в22321 0.0 101712
05:00+12в22350 0.0 101712
08:00+15вюв11280 0.0 1017185
11:00+19з32210 0.0 10161362
14:00+21з32190 0.0 10131711
17:00+20зюз22200 0.0 10131192
20:00+15ююв11280 0.0 101511
3 октября, пн
пн323:00+14юв113198 0.0 101511
02:00+13вюв1132100 0.0 101511
05:00+12в113399 0.0 101610
08:00+14з1127100 0.0 1017316
11:00+17з322213 0.1 10161150
14:00+19з32207 0.1 10141335
17:00+18з22200 0.1 1015954
20:00+13юв11270 0.0 101811
4 октября, вт
вт423:00+12в22305 0.0 101811
02:00+11в22325 0.0 101811
05:00+11в223418 0.0 101812
08:00+15вюв11280 0.0 1019124
11:00+19з32190 0.0 1018975
14:00+22з33140 0.0 10171355
17:00+20з22151 0.0 1018731
20:00+14в21211 0.0 102011